Currently 80°F in Pinon Hills, California, USA
80°F
82°F / 78°F
6 mph W
0.00"
Monday, August 3, 2020 4:31 AM PDT

Pinon Hills, California Climate Summary
Typical July Day

Normal High:    92.2°F (33.4°C)
Normal Low:    66.5°F (19.2°C)
Average:    79.4°F (26.3°C)

Hour    Temperature    Wind Speed    Humidity
12:00 AM    72°F (22°C)    2 mph    34%
1:00 AM    71°F (22°C)    2 mph    34%
2:00 AM    71°F (21°C)    2 mph    34%
3:00 AM    70°F (21°C)    2 mph    34%
4:00 AM    69°F (21°C)    2 mph    35%
5:00 AM    68°F (20°C)    2 mph    35%
6:00 AM    68°F (20°C)    2 mph    35%
7:00 AM    73°F (23°C)    1 mph    33%
8:00 AM    77°F (25°C)    1 mph    28%
9:00 AM    81°F (27°C)    1 mph    25%
10:00 AM    83°F (28°C)    1 mph    23%
11:00 AM    85°F (30°C)    2 mph    20%
12:00 PM    87°F (31°C)    2 mph    19%
1:00 PM    89°F (32°C)    2 mph    18%
2:00 PM    90°F (32°C)    2 mph    17%
3:00 PM    91°F (33°C)    3 mph    17%
4:00 PM    90°F (32°C)    3 mph    17%
5:00 PM    89°F (32°C)    4 mph    19%
6:00 PM    88°F (31°C)    4 mph    20%
7:00 PM    85°F (30°C)    5 mph    22%
8:00 PM    81°F (27°C)    3 mph    26%
9:00 PM    78°F (26°C)    3 mph    29%
10:00 PM    75°F (24°C)    2 mph    32%
11:00 PM    73°F (23°C)    2 mph    33%
 

The Pinon Hills, California weather pages are a service of WeatherCurrents.
Copyright ©2020  WeatherCurrents. All rights reserved. - Submit questions and comments - Privacy Policy